ONEWEB-0008, 44059

Orbit data source: Space-Track

ONEWEB-0008, 44059 is a payload satellite owned by One Web (UK) in LEO that was launched on Wed, 27 Feb 2019 UTC via a SOYUZ-ST-B launch vehicle from the French Guiana (FRGUI). Payload-class satellites include a variety of spacecraft equipped with specific instruments for various scientific and technological missions. These include communications satellites like Starlink; space stations such as the ISS; scientific satellites like the Hubble; Earth observation satellites from companies like Planet Labs, Umbra, and HawkEye 360; GPS; miniature CubeSats for education and research; and military/defense satellites.

Loading next visibility...
Identifier
44059, 2019-010C
Orbit
LEO
Country
Flag of UKUK
Related business
Manufacturer
Airbus/Toulouse
Mission
Operational Commercial Communications
Bus & Motor
ARROW, Unknown motor
Mass
148 kg wet, ~140 kg dry
Launch date (UTC)
2019-02-27 (7 years ago)
Launch vehicle
SOYUZ-ST-B
Launch site
French Guiana (FRGUI)
Object type
Payload
Rocket body
Debris
Shape & HBR
Trap Box + 2 Pan, 6.7 m
Radar Cross Section
3.464 m², Large (>1 m²)

Expand to show TLE details & history
Last TLE update: 15 hours ago

TLE from 15 hours ago
0 ONEWEB-0008
1 44059U 19010C   25312.83666038  .00000009  00000-0 -89922-5 0  9991
2 44059  87.9005 272.6634 0001844  76.7180 283.4157 13.16593032322739
Epoch: 2025-11-08T20:04Z
TLE epoch observation values (Epoch: 2025-11-08T20:04:47.456Z)
Latitude
0.00001°
Longitude
-76.79489°
Altitude
1,200.334 km
Speed
7.254 km/s
True Right ascension
18h 10m 39s
True Declination
0° 00' 00"
Sunlit
Object was in daylight at epoch
Visualization orbit readout
Latitude
Unknown
Longitude
Unknown
Altitude
Unknown
Speed
Unknown
Apparent Right ascension
Unknown
Apparent Declination
Unknown
Sunlit
N/A
Visualization observer readout
Local Sidereal Time
07:27:41
Azimuth
Unknown
Elevation
Unknown
Doppler factor
Unknown
Orbital elements
Apogee altitude
1,196.268 km
Perigee altitude
1,193.475 km
Semi-major axis
7,573.009 km
Eccentricity
0.00018
Inclination
87.9005°
RAAN
272.6634°
Arg. of periapsis
76.718°
True anomaly
283.39514°
Mean anomaly
283.4157°
Eccentric anomaly
283.40542°
Mean motion
3.29337 °/min
Orbital period
109.31 mins
BSTAR
-0.0000089922
Loading maneuver chart data...
Computing Atmospheric mass density...
Loading historical data...
Loading historical data...
Loading historical data...
Loading historical data...
Loading historical data...
Loading historical data...
Loading historical data...
Other satellites on launch #10 in the year 2019 (2019-02-27 UTC)

Documentation

Showing up to 5 results
|